This demonstration page uses our WeatherBlox Daily Observations layout. Learn more.

Left ArrowRight Arrow

39.51506, -84.39828

Hourly Observations for February 1, 2016

Temp ( °F °C ) Dew Point ( °F °C ) Humidity (%) Winds ( mph kmh ) Pressure ( in mb ) Visibility ( mi km ) Precip ( " mm )
12:15 am 00:15 Cloudy 55 12.5 43 6.1 65 65 WNW 15 24 29.83 1010 10 16 0.00 0.00
12:35 am 00:35 Cloudy with Light Rain 55 12.5 46 8 74 74 NW 14 22 29.83 1010 10 16 0.00 0.00
12:55 am 00:55 Cloudy with Light Rain 55 12.5 46 8 74 74 WNW 9 15 29.85 1011 10 16 0.00 0.00
1:15 am 01:15 Cloudy with Drizzle 52 11 46 7.5 79 79 WNW 3 6 29.85 1011 10 16 0.00 0.00
1:35 am 01:35 Cloudy 50 9.9 43 6.3 79 79 WNW 8 13 29.85 1011 10 16 0.00 0.00
1:55 am 01:55 Cloudy 49 9.6 42 5.6 76 76 WNW 6 9 29.85 1011 10 16 0.00 0.00
2:15 am 02:15 Cloudy 49 9.6 41 5.1 74 74 NNW 9 15 29.85 1011 10 16 0.00 0.00
2:35 am 02:35 Cloudy 49 9.6 40 4.7 72 72 NNW 12 19 29.88 1012 10 16 0.00 0.00
2:55 am 02:55 Cloudy 47 8.2 39 3.9 75 75 NNW 13 20 29.88 1012 10 16 0.00 0.00
3:15 am 03:15 Cloudy 46 7.5 37 2.9 73 73 NW 7 11 29.91 1013 10 16 0.00 0.00
3:35 am 03:35 Cloudy 44 6.8 36 2.2 73 73 NW 5 7 29.91 1013 10 16 0.00 0.00
3:55 am 03:55 Cloudy 44 6.8 36 2.2 73 73 NNW 8 13 29.91 1013 10 16 0.00 0.00
4:15 am 04:15 Cloudy 44 6.5 36 2.1 74 74 NNW 3 6 29.91 1013 10 16 0.00 0.00
4:35 am 04:35 Cloudy 43 6.2 34 1.3 71 71 N 9 15 29.91 1013 10 16 0.00 0.00
4:55 am 04:55 Cloudy 43 6.1 34 1.1 71 71 N 6 9 29.94 1014 10 16 0.00 0.00
5:15 am 05:15 Cloudy 43 6.1 34 1.3 72 72 N 7 11 29.94 1014 10 16 0.00 0.00
5:35 am 05:35 Cloudy 42 5.8 34 1 72 72 N 8 13 29.94 1014 10 16 0.00 0.00
5:55 am 05:55 Cloudy 42 5.6 33 0.5 70 70 N 7 11 29.94 1014 10 16 0.00 0.00
6:15 am 06:15 Cloudy 42 5.5 33 0.6 71 71 N 5 7 29.94 1014 10 16 0.00 0.00
6:35 am 06:35 Cloudy 42 5.5 33 0.7 72 72 N 5 7 29.97 1015 10 16 0.00 0.00
6:55 am 06:55 Mostly Cloudy 42 5.5 33 0.8 72 72 N 3 6 29.97 1015 10 16 0.00 0.00
7:15 am 07:15 Mostly Cloudy 41 5.1 33 0.7 74 74 N 3 6 29.97 1015 10 16 0.00 0.00
7:35 am 07:35 Partly Cloudy 40 4.7 33 0.5 74 74 N 5 7 30.00 1016 10 16 0.00 0.00
7:55 am 07:55 Mostly Cloudy 40 4.5 32 0.2 74 74 N 3 6 30.00 1016 10 16 0.00 0.00
8:15 am 08:15 Mostly Cloudy 39 4 32 0 75 75 N 5 7 30.00 1016 10 16 0.00 0.00
8:35 am 08:35 Partly Cloudy 40 4.7 33 0.3 73 73 N 6 9 30.00 1016 10 16 0.00 0.00
8:55 am 08:55 Partly Cloudy 41 4.8 32 0 71 71 NNE 8 13 30.00 1016 10 16 0.00 0.00
9:15 am 09:15 Mostly Cloudy 42 5.5 33 0.4 70 70 NE 6 9 30.00 1016 10 16 0.00 0.00
9:35 am 09:35 Mostly Cloudy 42 5.5 32 0.1 69 69 NNE 8 13 30.03 1017 10 16 0.00 0.00
9:55 am 09:55 Partly Cloudy 42 5.5 32 0 68 68 NE 5 7 30.03 1017 N/A 0.00 0.00
10:15 am 10:15 Partly Cloudy 42 5.5 32 0 68 68 ENE 5 7 30.03 1017 N/A 0.00 0.00
10:35 am 10:35 Mostly Cloudy 42 5.8 32 0 67 67 NNE 5 7 30.03 1017 10 16 0.00 0.00
10:55 am 10:55 Cloudy 43 6 32 0 66 66 ENE 5 7 30.03 1017 10 16 0.00 0.00
11:15 am 11:15 Mostly Cloudy 43 6.1 32 -0.1 65 65 NE 5 7 30.03 1017 10 16 0.00 0.00
11:35 am 11:35 Mostly Cloudy 43 6.2 31 -0.3 63 63 NE 5 7 30.03 1017 10 16 0.00 0.00
11:55 am 11:55 Mostly Cloudy 44 6.5 31 -0.4 62 62 NNE 5 7 30.06 1018 10 16 0.00 0.00
12:15 pm 12:15 Mostly Cloudy 44 6.4 31 -0.7 61 61 Calm 30.06 1018 10 16 0.00 0.00
12:35 pm 12:35 Mostly Cloudy 44 6.5 31 -0.7 60 60 Calm 30.06 1018 10 16 0.00 0.00
12:55 pm 12:55 Mostly Cloudy 44 6.8 31 -0.6 60 60 Calm 30.03 1017 N/A 0.00 0.00
1:15 pm 13:15 Partly Cloudy 44 6.9 31 -0.7 59 59 Calm 30.03 1017 N/A 0.00 0.00
1:35 pm 13:35 Mostly Cloudy 47 8.2 32 0 57 57 Calm 30.03 1017 N/A 0.00 0.00
1:55 pm 13:55 Mostly Cloudy 49 9.6 33 0.7 54 54 E 6 9 30.03 1017 N/A 0.00 0.00
2:15 pm 14:15 Partly Cloudy 49 9.6 32 0 52 52 S 3 6 30.03 1017 10 16 0.00 0.00
2:35 pm 14:35 Partly Cloudy N/A N/A N/A SSE 3 6 N/A 10 16 0.00 0.00
2:55 pm 14:55 Mostly Cloudy 49 9.6 31 -0.4 50 50 Calm 30.03 1017 10 16 0.00 0.00
3:15 pm 15:15 Mostly Cloudy 49 9.6 30 -0.9 48 48 Calm 30.03 1017 10 16 0.00 0.00
3:35 pm 15:35 Cloudy 49 9.6 31 -0.7 49 49 NE 3 6 30.03 1017 10 16 0.00 0.00
3:55 pm 15:55 Partly Cloudy 49 9.6 30 -1 48 48 N 6 9 30.03 1017 10 16 0.00 0.00
4:15 pm 16:15 Sunny 49 9.6 30 -1 48 48 N 7 11 30.03 1017 10 16 0.00 0.00
4:35 pm 16:35 Sunny 49 9.6 30 -0.9 48 48 NNE 7 11 30.03 1017 10 16 0.00 0.00
4:55 pm 16:55 Sunny 49 9.6 31 -0.7 49 49 N 6 9 30.06 1018 10 16 0.00 0.00
5:15 pm 17:15 Sunny 49 9.6 32 0 52 52 N 5 7 30.06 1018 10 16 0.00 0.00
5:35 pm 17:35 Sunny 48 9 32 0.2 54 54 NNE 3 6 30.06 1018 10 16 0.00 0.00
5:55 pm 17:55 Sunny 47 8.2 32 -0.2 56 56 N 5 7 30.06 1018 N/A 0.00 0.00
6:15 pm 18:15 Clear 44 6.8 31 -0.7 59 59 Calm 30.06 1018 N/A 0.00 0.00
6:35 pm 18:35 Clear 42 5.5 31 -0.7 65 65 Calm 30.09 1019 N/A 0.00 0.00
6:55 pm 18:55 Cloudy 62 16.6 47 8.1 57 57 SSW 12 19 29.71 1006 10 16 0.00 0.00
7:15 pm 19:15 Clear 39 4 32 -0.2 74 74 N 3 6 30.12 1020 N/A 0.00 0.00
7:35 pm 19:35 Clear 34 1.2 28 -2 79 79 Calm 30.12 1020 N/A 0.00 0.00
7:55 pm 19:55 Clear 36 2 30 -0.9 81 81 N 3 6 30.12 1020 N/A 0.00 0.00
8:15 pm 20:15 Clear 37 2.6 32 -0.2 82 82 Calm 30.12 1020 N/A 0.00 0.00
8:35 pm 20:35 undefined 34 1.2 30 -1.2 84 84 Calm 30.15 1021 N/A 0.00 0.00
8:55 pm 20:55 undefined 34 1.2 30 -1.2 84 84 Calm 30.15 1021 N/A 0.00 0.00
9:15 pm 21:15 undefined 34 1.2 30 -1 85 85 Calm 30.15 1021 N/A 0.00 0.00
9:35 pm 21:35 undefined 34 1.2 30 -1 85 85 Calm 30.15 1021 N/A 0.00 0.00
9:55 pm 21:55 undefined 34 1.2 30 -1 85 85 N 3 6 30.15 1021 N/A 0.00 0.00
10:15 pm 22:15 undefined 32 0 28 -2.2 85 85 NE 3 6 30.15 1021 N/A 0.00 0.00
10:35 pm 22:35 undefined 32 0 28 -2.1 86 86 NNE 5 7 30.15 1021 N/A 0.00 0.00
10:55 pm 22:55 undefined 32 0 28 -2.1 86 86 NNE 3 6 30.15 1021 N/A 0.00 0.00
11:15 pm 23:15 undefined 31 -0.7 27 -2.7 87 87 Calm 30.15 1021 N/A 0.00 0.00
11:35 pm 23:35 undefined 31 -0.5 28 -2.5 87 87 NNE 3 6 30.15 1021 N/A 0.00 0.00
11:55 pm 23:55 undefined 31 -0.7 27 -2.6 87 87 NE 5 7 30.15 1021 N/A 0.00 0.00

Powered by AerisWeather